Location: College Rock
(37.2713°N, 119.1740°W)
Time: 13:06:46
(UTC+00:00)

Cosmos 1833 Rocket - Pass Details

Date: 29 October 2020
Orbit: 832 x 840 km, 71.0° (Epoch: 01 December)

Event Time Altitude Azimuth Distance (km) Brightness Sun altitude
Exits shadow 13:29:20 11° 300° (WNW) 2,362 4.4 -10.4°
Maximum altitude 13:30:20 12° 311° (NW) 2,330 4.5 -10.2°
Drops below altitude 10° 13:32:20 10° 332° (NNW) 2,461 4.8 -9.8°
Sets 13:36:41 0° 3° (N) 3,400 5.8 -9.0°
